Regional Weather Roundup
Issued by NWS Newport/Morehead, NC

Current Version | Previous Version | Graphics & Text | Print | Product List | Glossary Off
Versions: 1 2 3 4 5 6 7 8 9 10 11 12 13 14 15 16 17 18 19 20 21 22 23 24 25 26 27 28 29 30 31 32 33 34 35 36 37 38 39 40 41 42 43 44 45 46 47 48 49 50

589
ASUS42 KMHX 190925
RWRMHX
WEATHER ROUNDUP FOR EASTERN NORTH CAROLINA
NATIONAL WEATHER SERVICE NEWPORT/MOREHEAD CITY NC
400 AM EST THU JAN 19 2017

NOTE: "FAIR" INDICATES FEW OR NO CLOUDS BELOW 12,000 FEET
WITH NO SIGNIFICANT WEATHER AND/OR OBSTRUCTIONS TO VISIBILITY

NCZ015>017-031-032-045>047-102-103-191000-
NORTH COAST

CITY           SKY/WX    TMP DP  RH WIND       PRES   REMARKS
EDENTON        PTCLDY    44  42  92 N5        30.06S
ELIZABETH CITY PTCLDY    41  39  93 NW5       30.05S
KITTY HAWK     NOT AVBL
MANTEO         CLOUDY    44  44 100 N5        30.05S

$$

NCZ045>047-081-094-103-104-191000-
CENTRAL COAST

CITY           SKY/WX    TMP DP  RH WIND       PRES   REMARKS
FRISCO         PTCLDY    47  44  90 VRB5      30.03S

$$

NCZ095-097-098-100-101-191000-
SOUTHERN COAST

CITY           SKY/WX    TMP DP  RH WIND       PRES   REMARKS
BEAUFORT       PTCLDY    44  41  89 N5        30.03S
CEDAR ISLAND   NOT AVBL
JACKSONVILLE   CLEAR     40  40 100 NW3       30.05R
PINEY ISLAND   SUNNY    N/A N/A N/A N8        30.03S
WILMINGTON     CLEAR     40  40 100 NE3       30.04F FOG


$$

NCZ011>013-027>030-043-044-078>080-089-090>093-098-191000-
COASTAL PLAIN

CITY           SKY/WX    TMP DP  RH WIND       PRES   REMARKS
AHOSKIE          N/A     40  37  90 CALM      30.06F
CLINTON        CLEAR     40  39  97 CALM      30.07S
ELIZABETHTOWN  CLEAR     41  38  91 CALM      30.05F
GOLDSBORO      CLEAR     41  41  99 CALM      30.04S
GREENVILLE     SNOW      37  37 100 CALM      30.08S VSB 1/2
HAVELOCK       CLOUDY    41  39  93 CALM      30.05S
KENANSVILLE    CLEAR     36  36 100 CALM      30.06F
KINSTON        CLOUDY    36  35  98 CALM      30.07S
NEW BERN       FOG       39  38  96 CALM      30.06S VSB 1/4
RICHLANDS      PTCLDY    36  34  93 CALM      30.06S FOG
ROCKY MOUNT    CLOUDY    38  38 100 CALM      30.07R
WASHINGTON     PTCLDY    38  38  99 CALM        N/A
WHITEVILLE     CLEAR     43  41  94 CALM      30.05F

$$

AMZ130-135-150-152-154-156-158-170-250-252-270-ANZ085-086-088-633-658-670-191000-
MARINE OBSERVATIONS

STATION/POSITION TIME  TEMP    WIND        PRES    WAVE   SWELL
                       AIR SEA DIR/SP/G            HT/PER HT/PER
                 (UTC) (F)     (DEG/KT/KT) (MB)    (FT/S) (FT/S)
CHESAPEAKE LIGHT NOT AVBL
64 E VA BEACH    0850   50 57   10/ 21/ 23 1015.8    6/ 8   3/ 8
DUCK             0900   45 45  320/  7/  8 1016.8
2 E DUCK         0900      45                N/A     4/ 7
OREGON INLET     0900   45 50  330/  5/  6 1017.1
13E OREGON INLT  NOT AVBL
HATTERAS CG      0900   48 55  360/ 11/ 13 1016.4
DIAMOND BUOY     0850   52 75  360/ 14/ 19 1016.6    5/ 8   3/ 8
CAPE LOOKOUT     0900   50     360/  8/  9 1016.3
BEAUFORT LAB     0900   47 51  350/  4/  5 1016.0
30 SE NEW RVR IN 0808   57 62   50/ 10/ 14 1017.0
30 SE NEW RVR IN 0913      62                N/A     4/ 7
27 SE WRIGHTSVLE 0808   60 68   70/ 10/ 16 1016.5
5 SE WRIGHTSVLE  0808   53      30/  8/ 12 1017.1
225 S CAPE HAT   0850   67 72  360/ 16/ 17 1014.7    8/ 8   7/ 8
41 SE CHARLESTON 0850   68 71   CALM  /  2 1015.4    2/ 5   2/ 5

$$




USA.gov is the U.S. government's official web portal to all federal, state and local government web resources and services.